Regional Weather Roundup
Issued by NWS

Home | Current Version | Previous Version | Text Only | Print | Product List | Glossary Off
Versions: 1 2 3 4 5 6 7 8 9 10 11 12 13 14 15 16 17 18 19 20 21 22 23 24 25 26 27 28 29 30 31 32 33 34 35 36 37 38 39 40 41 42 43 44 45 46 47 48 49 50

000
ASUS43 KMKX 140120
RWRWI

WISCONSIN REGIONAL WEATHER ROUNDUP
NATIONAL WEATHER SERVICE MILWAUKEE/SULLIVAN WI
700 PM CST SAT FEB 13 2016

NOTE: "FAIR" INDICATES FEW OR NO CLOUDS BELOW 12,000 FEET WITH NO
SIGNIFICANT WEATHER AND/OR OBSTRUCTIONS TO VISIBILITY.

WIZ001-002-006>008-014>016-023>028-140200-
NORTHWEST WISCONSIN

CITY           SKY/WX    TMP DP  RH WIND       PRES   REMARKS
SUPERIOR ARPT  CLOUDY     1  -6  75 CALM      30.42F
ASHLAND        CLOUDY    -5 -14  65 SE3       30.43S
HAYWARD        CLOUDY    -5 -14  65 NE3       30.39F
SIREN          CLOUDY     0 -12  56 SE3       30.42S
CUMBERLAND     CLOUDY     0 -17  46 CALM      30.40S
RICE LAKE      CLOUDY     1 -13  53 CALM      30.43S
CHETEK         CLOUDY    -2 -12  62 CALM      30.43R
LADYSMITH      CLOUDY     0 -13  54 CALM      30.42S
EAU CLAIRE     CLOUDY     0 -15  49 E5        30.44F WCI -10
MENOMONIE      CLOUDY     1 -16  45 E3        30.44S
NEW RICHMOND   CLOUDY     0 -11  59 SE3       30.42F
OSCEOLA        CLOUDY     3 -10  54 E5        30.45F WCI  -7
$$

WIZ003>005-009-010-017-018-140200-
NORTH CENTRAL WISCONSIN

CITY           SKY/WX    TMP DP  RH WIND       PRES   REMARKS
MANITOWISH WTR CLOUDY    -7 -12  78 CALM      30.35S
ARBOR VITAE    CLOUDY    -1  -9  68 CALM      30.35F
WOODRUFF       CLOUDY    -1  -9  68 CALM      30.35F
RHINELANDER    CLOUDY    -2 -13  59 CALM      30.36F
EAGLE RIVER    CLOUDY    -4 -12  70 CALM      30.35S
LAND O LAKES   CLOUDY    -7 -11  82 SW3       30.36S
PHILLIPS       CLOUDY     0 -13  54 CALM      30.37S
TOMAHAWK       CLOUDY    -5 -13  69 CALM      30.38S
MEDFORD        CLOUDY    -6 -14  70 CALM      30.38S
MERRILL        CLOUDY     1 -10  59 CALM      30.41F
$$

WIZ029-030-035-036-043>047-140200-
CENTRAL WISCONSIN

CITY           SKY/WX    TMP DP  RH WIND       PRES   REMARKS
WAUSAU         CLOUDY     3 -10  54 CALM      30.41S
MOSINEE        CLEAR      1 -11  55 VRB3      30.42F
MARSHFIELD     CLOUDY     2 -12  52 E3        30.39F
STEVENS POINT  CLOUDY    -2 -12  63 CALM      30.44F
WAUPACA        PTCLDY     6 -10  47 CALM      30.46F
WAUTOMA        CLOUDY     0 -12  56 CALM      30.47F
WISC RAPIDS    CLOUDY     0 -10  63 CALM      30.45F
CAMP DOUGLAS   CLOUDY    -1  -9  69 CALM      30.45F
$$

WIZ011>013-019>022-031-037>040-048>050-140200-
NORTHEAST WISCONSIN

CITY           SKY/WX    TMP DP  RH WIND       PRES   REMARKS
ANTIGO         CLOUDY     1  -9  61 CALM      30.39R
SHAWANO        CLEAR      9  -6  50 CALM      30.46S
OCONTO         CLEAR      7  -7  54 SW3       30.47S
STURGEON BAY   CLEAR      5  -8  56 S5        30.48S WCI  -4
GREEN BAY      CLOUDY     6  -7  54 SW5       30.47F WCI  -3
MANITOWOC      CLEAR      4  -7  60 SW3       30.49F
APPLETON       PTCLDY     7 -11  43 SW5       30.44F WCI  -2
CLINTONVILLE   CLOUDY     5  -8  56 SW5       30.46S WCI  -4
OSHKOSH        CLOUDY     2  -9  60 S5        30.46F WCI  -8
$$

WIZ032>034-041-042-053>061-140200-
SOUTHWEST WISCONSIN

CITY           SKY/WX    TMP DP  RH WIND       PRES   REMARKS
LA CROSSE      CLOUDY     4  -7  60 CALM      30.47F
SPARTA         CLOUDY     0  -9  65 E3        30.47F
VIROQUA        CLOUDY     7 -10  47 CALM      30.41F
BOSCOBEL       CLOUDY     8  -8  48 CALM      30.49F
PRAIRIE DU CHI CLOUDY     7  -6  54 CALM      30.49F
PLATTEVILLE    CLOUDY     7  -5  58 CALM      30.45F
$$

WIZ056-057-062-063-064-067-068-140200-
SOUTH CENTRAL WISCONSIN

CITY           SKY/WX    TMP DP  RH WIND       PRES   REMARKS
REEDSBURG      CLOUDY     5  -9  52 CALM      30.46F
BARABOO/DELLS  CLOUDY     3 -11  52 CALM      30.45F
LONE ROCK      CLOUDY     3  -9  57 CALM      30.49F
MINERAL POINT  CLOUDY     7  -8  51 S3        30.44S
MADISON        CLOUDY     6  -8  52 CALM      30.47F
MIDDLETON      CLOUDY     5  -5  64 CALM      30.46F
WATERTOWN      CLOUDY     4  -4  68 CALM      30.48S
MONROE         CLOUDY    10  -6  48 CALM      30.45S
JANESVILLE     CLEAR     12  -6  44 CALM      30.48F
$$

WIZ051-052-058>065-066-070>072-140200-
SOUTHEAST WISCONSIN

CITY           SKY/WX    TMP DP  RH WIND       PRES   REMARKS
MILWAUKEE      PTCLDY     8  -7  50 N3        30.50F
WAUKESHA       CLEAR      3  -8  60 N3        30.49S
MILWAUKEE/TIMM CLEAR      7  -8  51 W5        30.50F WCI  -2
RACINE         CLEAR      9  -8  46 CALM      30.51F
BURLINGTON     CLOUDY     5  -7  58 CALM      30.49S
KENOSHA        CLEAR      9  -6  50 CALM      30.49F
FOND DU LAC    CLOUDY     5  -8  55 S3        30.47F
SHEBOYGAN      CLEAR      3  -6  66 CALM      30.48F
WEST BEND      CLOUDY     5  -6  61 CALM      30.47F
JUNEAU         CLOUDY     3  -7  64 S5        30.47F WCI  -7
$$

LSZ147-162-140200-
LAKE SUPERIOR

STATION/POSITION TIME  TEMP    WIND        PRES    WAVE
                       AIR SEA DIR/SP/G            HT/PER
                 (UTC) (F)     (DEG/KT/KT) (MB)    (FT/S)
DEVILS ISLAND    0100    7     170/  6/  7 1032.6F
SAXON HARBOR     0000    1                 1030.5F
$$

LMZ867-665-643>646-140200-
LAKE MICHIGAN

STATION/POSITION TIME  TEMP    WIND        PRES    WAVE
                       AIR SEA DIR/SP/G            HT/PER
                 (UTC) (F)     (DEG/KT/KT) (MB)    (FT/S)
CHAMBERS ISLAND  0000    8     180/  3/  7 1031.5S
SISTER BAY       0019    6        CALM       N/A
ALGOMA LAKESHORE 0011             CALM       N/A
KEWAUNEE LAKESHO 0000    8                 1031.5F
SHEBOYGAN LAKESH 0100    9     260/  7/  8 1034.4F
PORT WASHINGTON  0000    9     290/  3/  6 1034.2
MILWAUKEE LAKESH 0110   10     300/  5/  6   N/A
KENOSHA   LAKESH 0100   12     330/  6/  7 1032.8S
$$

TC  - TEMPERATURE IN CELSIUS
VSB - VISIBILITY IN STATUTE MILES
WCI - WIND CHILL INDEX
HX  - HEAT INDEX




USA.gov is the U.S. government's official web portal to all federal, state and local government web resources and services.